| time (UTC) | temp C | wind direction | speed KPH | gust KPH | rain 1hr cm | rain 24hr cm | rain mn cm | humidity % | barometer mb |
| 20260504081505 | 8 | 123 | 0.0 | 0.0 | 0.00 | 0.00 | 0.00 | 63 | 996.0 |
| 20260504050006 | 8 | 123 | 0.0 | 0.0 | 0.00 | 0.00 | 0.00 | 59 | 995.2 |
| 20260504044505 | 8 | 123 | 0.0 | 0.0 | 0.00 | 0.00 | 0.00 | 60 | 995.1 |
| 20260504043006 | 8 | 123 | 0.0 | 0.0 | 0.00 | 0.00 | 0.00 | 60 | 995.0 |
| 20260504041506 | 7 | 123 | 0.0 | 0.0 | 0.00 | 0.00 | 0.00 | 63 | 994.9 |
| 20260504040006 | 7 | 123 | 0.0 | 0.0 | 0.00 | 0.20 | 0.00 | 66 | 994.9 |
| 20260504034505 | 6 | 123 | 0.0 | 0.0 | 0.00 | 0.20 | 0.00 | 70 | 994.9 |
| 20260504033005 | 5 | 123 | 0.0 | 0.0 | 0.00 | 0.20 | 0.00 | 78 | 995.1 |
| 20260504031506 | 5 | 123 | 0.0 | 0.0 | 0.00 | 0.20 | 0.00 | 82 | 995.1 |
| 20260504030006 | 5 | 123 | 0.0 | 0.0 | 0.00 | 0.20 | 0.00 | 83 | 995.2 |
| 20260504024505 | 5 | 123 | 0.0 | 0.0 | 0.00 | 0.20 | 0.00 | 82 | 995.3 |
| 20260504023006 | 5 | 123 | 0.0 | 0.0 | 0.00 | 0.20 | 0.00 | 79 | 995.4 |
| 20260504021505 | 5 | 123 | 0.0 | 0.0 | 0.00 | 0.20 | 0.00 | 79 | 995.3 |
| 20260504020005 | 6 | 123 | 0.0 | 0.0 | 0.00 | 0.20 | 0.00 | 75 | 995.4 |
| 20260504014505 | 6 | 123 | 0.0 | 0.0 | 0.00 | 0.20 | 0.00 | 73 | 995.3 |
| 20260504013006 | 6 | 123 | 0.0 | 0.0 | 0.00 | 0.20 | 0.00 | 70 | 995.2 |
| 20260504011505 | 7 | 123 | 0.0 | 0.0 | 0.00 | 0.20 | 0.00 | 69 | 995.2 |
| 20260504010006 | 7 | 123 | 0.0 | 0.0 | 0.00 | 0.20 | 0.00 | 64 | 995.0 |
| 20260504004505 | 8 | 123 | 0.0 | 0.0 | 0.00 | 0.20 | 0.00 | 60 | 994.9 |
| 20260504003006 | 10 | 123 | 0.0 | 0.0 | 0.00 | 0.20 | 0.00 | 54 | 994.7 |
| 20260504001507 | 11 | 123 | 0.0 | 0.0 | 0.00 | 0.20 | 0.00 | 48 | 994.4 |
| 20260504000006 | 12 | 123 | 0.0 | 0.0 | 0.00 | 0.20 | 0.00 | 44 | 994.3 |
| 20260503234505 | 13 | 123 | 0.0 | 0.0 | 0.00 | 0.20 | 0.00 | 42 | 994.1 |
| 20260503233006 | 13 | 123 | 0.0 | 0.0 | 0.00 | 0.20 | 0.00 | 40 | 993.9 |
| 20260503230005 | 14 | 123 | 0.0 | 0.0 | 0.00 | 0.20 | 0.00 | 38 | 993.5 |
| 20260503224506 | 14 | 123 | 0.0 | 0.0 | 0.00 | 0.20 | 0.00 | 38 | 993.4 |
| 20260503223005 | 14 | 123 | 0.0 | 0.0 | 0.00 | 0.20 | 0.00 | 38 | 993.5 |
| 20260503221506 | 15 | 123 | 0.0 | 0.0 | 0.00 | 0.20 | 0.00 | 35 | 993.3 |
| 20260503214506 | 15 | 123 | 0.0 | 0.0 | 0.00 | 0.20 | 0.00 | 34 | 993.2 |
| 20260503213006 | 15 | 123 | 0.0 | 0.0 | 0.00 | 0.20 | 0.00 | 34 | 993.0 |
| 20260503210006 | 15 | 123 | 0.0 | 0.0 | 0.00 | 0.20 | 0.00 | 33 | 993.1 |
| 20260503204505 | 15 | 123 | 0.0 | 0.0 | 0.00 | 0.20 | 0.00 | 36 | 993.1 |
| 20260503203006 | 15 | 123 | 0.0 | 0.0 | 0.00 | 0.20 | 0.00 | 34 | 993.1 |
| 20260503201506 | 15 | 123 | 0.0 | 0.0 | 0.00 | 0.20 | 0.00 | 37 | 993.4 |
| 20260503194506 | 14 | 123 | 0.0 | 0.0 | 0.00 | 0.20 | 0.00 | 36 | 993.1 |
| 20260503193006 | 12 | 123 | 0.0 | 0.0 | 0.00 | 0.20 | 0.00 | 37 | 993.9 |
| 20260503190005 | 14 | 123 | 0.0 | 0.0 | 0.00 | 0.20 | 0.00 | 38 | 993.7 |
| 20260503184506 | 13 | 123 | 0.0 | 0.0 | 0.00 | 0.20 | 0.00 | 37 | 993.9 |
| 20260503183010 | 13 | 123 | 0.0 | 0.0 | 0.00 | 0.20 | 0.00 | 39 | 994.0 |
| 20260503181506 | 12 | 123 | 0.0 | 0.0 | 0.00 | 0.20 | 0.00 | 40 | 994.3 |
| 20260503180006 | 13 | 123 | 0.0 | 0.0 | 0.00 | 0.20 | 0.00 | 40 | 994.1 |
| 20260503174506 | 12 | 123 | 0.0 | 0.0 | 0.00 | 0.20 | 0.00 | 41 | 993.8 |